Regional Weather Roundup
Issued by NWS Jackson, KY

Home | Current Version | Previous Version | Graphics & Text | Print | Product List | Glossary On
Versions: 1 2 3 4 5 6 7 8 9 10 11 12 13 14 15 16 17 18 19 20 21 22 23 24 25 26 27 28 29 30 31 32 33 34 35 36 37 38 39 40 41 42 43 44 45 46 47 48 49 50
000
ASUS43 KJKL 280810
RWRJKL

EAST KENTUCKY HOURLY WEATHER ROUNDUP
NATIONAL WEATHER SERVICE JACKSON KY
400 AM EDT SAT MAR 28 2015

NOTE: "FAIR" INDICATES FEW OR NO CLOUDS BELOW 12,000 FEET WITH
NO SIGNIFICANT WEATHER AND/OR OBSTRUCTIONS TO VISIBILITY.

* THESE REPORTS ARE NOT UNDER NWS QUALITY CONTROL AND MAY NOT
  REPORT WEATHER SUCH AS PRECIPITATION AND FOG.

KYZ079-080-083-085-087-088-110-112-115-119-120-280900
...EASTERN KENTUCKY...

CITY           SKY/WX    TMP DP  RH WIND       PRES   REMARKS
JACKSON        CLOUDY    27  14  58 NW10G17   30.04S WCI  17
LONDON         CLOUDY    30  11  45 NW12      30.07S WCI  20
SOMERSET*      CLOUDY    28  14  54 N8        30.11S WCI  20
MONTICELLO*    FLURRIES  31  21  66 N9        30.12F WCI  23
MIDDLESBORO*   CLOUDY    31  19  60 N14       30.06S WCI  21
HAZARD APT*    MOSUNNY   28  12  50 NW12      30.05S WCI  18
BLACK MTN*       N/A     14  14 100 NE8         N/A  WCI   3
PIKEVILLE APT* CLOUDY    27  14  59 NW7       30.02S WCI  19
BIG SANDY*     CLOUDY    28  14  56 NW7       30.04S WCI  21
MOREHEAD APT*  CLOUDY    27  16  63 VRB6      30.10S WCI  20
$$

KYZ035-036-041-042-044-050-067-078-099-280900
...CENTRAL KENTUCKY...

CITY           SKY/WX    TMP DP  RH WIND       PRES   REMARKS
MT STERLING*   CLOUDY    28  21  74 N7        30.10S WCI  21
FLEMING/MASON* CLOUDY    25  19  80 N7        30.11R WCI  17
DANVILLE*      CLOUDY    27  18  69 N7        30.12S WCI  19
RICHMOND*      CLOUDY    27  16  63 N5        30.10S WCI  21
LEXINGTON      CLOUDY    23  15  71 N8        30.11S WCI  14
FRANKFORT      CLEAR     23  11  60 NW7       30.12S WCI  15
$$

KYZ091>093-OHZ055-061-077-WVZ005-015-034-035-042-280900
...SOUTHERN OHIO/WEST VIRGINIA...

CITY           SKY/WX    TMP DP  RH WIND       PRES   REMARKS
COVINGTON      CLEAR     22  13  68 N13       30.12S WCI  10
COLUMBUS       MOCLDY    20  15  81 N6        30.10S WCI  12
DAYTON         CLEAR     20  14  77 NW6       30.12S WCI  12
WILMINGTON     PTCLDY    20  11  68 N7        30.10S WCI  11
HUNTINGTON     CLOUDY    26  12  55 N8        30.07S WCI  18
CHARLESTON     CLOUDY    26   4  38 W9G21     30.03S WCI  17
PINEVILLE*     FLURRIES  27  20  76 MISG      30.02S
BECKLEY        FLURRIES  20  12  71 NW13G20   29.90S WCI   7
BLUEFIELD      FLURRIES  23  13  65 NW12G21   29.88S WCI  12
$$

VAZ002-007-008-TNZ017-027-036-066-071-280900
...SOUTHWEST VIRGINIA/EAST TENNESSEE...

CITY           SKY/WX    TMP DP  RH WIND       PRES   REMARKS
WISE*          FLURRIES  25  19  80 NW8       29.94F WCI  16
JONESVILLE*    CLOUDY    30  14  51 NW5       30.04S WCI  25
ABINGDON*      FLURRIES  29  21  73 N7G18     29.94F WCI  22
BRISTOL        CLOUDY    31  18  58 NW14G23   29.97F WCI  21
KNOXVILLE      FLURRIES  34  21  59 N6        30.05S WCI  29
OAK RIDGE      CLOUDY    35  19  52 VRB3      30.07F
CROSSVILLE     CLEAR     28  18  66 NW8       30.04S WCI  20
NASHVILLE      CLOUDY    32  18  56 N7        30.16R WCI  26
$$

...KEY TO REMARKS...
VSB - VISIBILITY IN MILES
WCI - WIND CHILL INDEX
HX  - HEAT INDEX

$$


USA.gov is the U.S. government's official web portal to all federal, state and local government web resources and services.